Location: Canazei
(46.4667°N, 11.7667°E)
Time: 03:41:13
(UTC+00:00)

Cosmos 1733 - Pass Details

Date: 21 April 2021
Orbit: 503 x 522 km, 82.5° (Epoch: 10 May)

Event Time Altitude Azimuth Distance (km) Brightness Sun altitude
Rises 02:24:23 0° 351° (N) 2,619 7.2 -17.5°
Reaches altitude 10° 02:26:31 10° 353° (N) 1,727 6.3 -17.2°
Maximum altitude 02:30:19 82° 81° (E) 515 3.1 -16.7°
Enters shadow 02:33:51 11° 169° (S) 1,623 5.4 -16.2°
